{"data":{"norad_id":61625,"epoch":"2026-09-21T08:32:43.770624Z","epoch_age_seconds":118051,"freshness":"FRESH","line1":"1 61625U 24191E   26264.35606216  .00000343  00000+0  22006-4 0  9999","line2":"2 61625  43.0064 129.2563 0002003 260.4492  99.6133 15.27573831107460","mean_motion":15.27573831,"eccentricity":0.0002003,"inclination_deg":43.0064,"raan_deg":129.2563,"arg_perigee_deg":260.4492,"mean_anomaly_deg":99.6133,"bstar":2.2006e-5,"rev_number":10746,"period_min":94.267129403319,"perigee_km":481.69326903207,"apogee_km":484.44186758214,"semimajor_km":6861.2045683071,"source":"CELESTRAK","updated_at":"2026-09-22T09:00:49.395386Z"}}